Powrót do katalogu

STARLINK-5804

AktywnyŁącznośćVLEO
NORAD 55788·PAYLOAD·🇺🇸 United States

Wystrzelony Mar 3, 2023 z Vandenberg Space Force Base

Loading…

Następne Przeloty (najbliższe 24 godziny)

TLE

ŚwieżeSource: CelesTrak SupGP

Epoka: Sep 14, 2026, 21:54 UTC

1 55788C 23028AZ  26257.91298611  .00035353  00000+0  29626-2 0  2579
2 55788  70.0005  87.4623 0002737 273.1160 223.1598 14.98314686    17

Śledź STARLINK-5804 w czasie rzeczywistym z AllMySat

Download on the App Store